Weather History for Grand Canyon, AZ

Change the Weather History Date:

Tuesday, February 11, 2014

  Actual Average Record
Temperature  
Mean Temperature 34 °F -  
Max Temperature 48 °F 43 °F 57 °F (2002)
Min Temperature 19 °F 16 °F -11 °F (2013)
Degree Days  
Heating Degree Days 32    
Moisture  
Dew Point 19 °F    
Average Humidity 66    
Maximum Humidity 92    
Minimum Humidity 26    
Precipitation  
Precipitation 0.00 in - - ()
Sea Level Pressure  
Sea Level Pressure 30.15 in    
Wind  
Wind Speed 2 mph (NNW)    
Max Wind Speed 8 mph    
Max Gust Speed -    
Visibility 10 miles    
Events      
Averages and records for this station are not official NWS values.
T = Trace of Precipitation, MM = Missing Value Source: NWS Daily Summary

Daily Weather History Graph

Daily Weather History Graph

Search for Another Location

Airport:

Trip Planner

Search our weather history database for the weather conditions in past years. The results will help you decide how hot, cold, wet, or windy it might be!

Date:

Astronomy

Feb. 11, 2014 Rise Set
Actual Time 7:19 AM MST 6:06 PM MST
Civil Twilight 6:53 AM MST 6:32 PM MST
Nautical Twilight 6:23 AM MST 7:02 PM MST
Astronomical Twilight 5:53 AM MST 7:32 PM MST
Moon 3:32 PM MST (2/11) 4:56 AM MST (2/11)
Length of Visible Light 11h 39m
Length of Day
10h 46m
Waxing Gibbous, 91% of the Moon is Illuminated
Feb 11
Waxing Gibbous
Feb 14
Full
Feb 22
Last Quarter
Mar 1
New
Mar 8
First Quarter

Hourly Weather History & Observations

Time (MST) Temp. Windchill Dew Point Humidity Pressure Visibility Wind Dir Wind Speed Gust Speed Precip Events Conditions
12:54 AM 24.1 °F 19.7 °F 21.0 °F 88% 30.09 in 10.0 mi NE 3.5 mph - N/A   Clear
1:54 AM 23.0 °F - 19.9 °F 88% 30.07 in 10.0 mi Calm Calm - N/A   Clear
2:54 AM 21.9 °F - 19.0 °F 89% 30.08 in 10.0 mi Calm Calm - N/A   Clear
3:54 AM 21.0 °F 16.2 °F 19.0 °F 92% 30.09 in 10.0 mi ENE 3.5 mph - N/A   Clear
4:54 AM 19.9 °F - 17.1 °F 89% 30.10 in 10.0 mi Calm Calm - N/A   Clear
5:54 AM 19.0 °F - 16.0 °F 88% 30.13 in 10.0 mi Calm Calm - N/A   Clear
6:54 AM 19.9 °F - 17.1 °F 89% 30.15 in 10.0 mi Calm Calm - N/A   Clear
7:54 AM 23.0 °F - 19.9 °F 88% 30.18 in 10.0 mi Calm Calm - N/A   Clear
8:54 AM 30.0 °F - 25.0 °F 82% 30.19 in 10.0 mi Calm Calm - N/A   Clear
9:54 AM 39.9 °F - 25.0 °F 55% 30.16 in 10.0 mi Calm Calm - N/A   Clear
10:54 AM 44.1 °F - 23.0 °F 43% 30.15 in 10.0 mi Calm Calm - N/A   Clear
11:54 AM 46.0 °F - 21.9 °F 39% 30.14 in 10.0 mi Calm Calm - N/A   Clear
12:54 PM 48.0 °F - 19.0 °F 32% 30.11 in 10.0 mi Variable 6.9 mph - N/A   Clear
1:54 PM 48.9 °F - 21.9 °F 35% 30.09 in 10.0 mi WSW 8.1 mph - N/A   Clear
2:54 PM 48.9 °F - 18.0 °F 29% 30.06 in 10.0 mi WNW 8.1 mph - N/A   Clear
3:54 PM 46.9 °F - 15.1 °F 28% 30.09 in 10.0 mi West 8.1 mph - N/A   Clear
4:54 PM 46.0 °F 44.8 °F 12.9 °F 26% 30.12 in 10.0 mi Variable 3.5 mph - N/A   Clear
5:54 PM 43.0 °F 38.8 °F 15.1 °F 32% 30.17 in 10.0 mi North 6.9 mph - N/A   Clear
6:54 PM 30.9 °F - 18.0 °F 59% 30.23 in 10.0 mi Calm Calm - N/A   Clear
7:54 PM 26.1 °F - 19.0 °F 75% 30.25 in 10.0 mi Calm Calm - N/A   Clear
8:54 PM 24.1 °F - 19.0 °F 81% 30.25 in 10.0 mi Calm Calm - N/A   Clear
9:54 PM 23.0 °F - 19.0 °F 85% 30.22 in 10.0 mi Calm Calm - N/A   Clear
10:54 PM 23.0 °F - 19.0 °F 85% 30.21 in 10.0 mi Calm Calm - N/A   Clear
11:54 PM 24.1 °F - 18.0 °F 77% 30.21 in 10.0 mi Calm Calm - N/A   Clear